Lid_Strength_Index
7 10 12 10 9 8 10 12 11 9 10 11 10 9 8 7 8 8 8 7 6 4 2 2 2 1 1 1 1 1 1 0 0 1 1 1 1 0 -0 -1 -1 -1 -1 -1
9 12 8 7 8 9 9 11 11 9 11 11 10 9 8 8 9 9 9 8 7 5 4 3 2 2 2 1 1 1 1 1 0 0 0 0 0 0 -0 -1 -1 -1 -1 -1
11 9 7 8 9 11 10 11 10 11 10 9 9 10 9 7 7 8 10 9 8 7 6 3 3 2 2 2 1 1 1 1 0 0 0 0 0 0 1 0 0 -0 -1 -1
9 7 8 9 10 10 12 8 10 11 11 14 9 14 9 7 7 7 8 8 8 8 7 6 3 3 2 2 1 1 1 1 0 0 1 1 2 2 1 1 0 -0 -1 -1
11 10 10 11 10 8 10 9 10 10 11 11 11 13 11 8 9 7 6 6 6 7 7 7 6 3 2 2 1 1 1 1 1 0 1 1 2 1 1 1 1 0 -0 -1
9 7 8 9 8 8 8 9 10 10 11 15 12 13 13 10 9 8 6 5 4 4 5 7 6 5 3 1 1 1 1 1 1 1 1 1 1 1 1 1 1 1 0 -0
11 10 8 7 10 8 9 11 15 16 16 16 13 13 12 9 8 7 7 7 6 5 5 6 7 6 6 4 2 2 2 2 1 1 1 1 1 1 1 1 1 1 1 1
14 16 11 8 9 11 10 10 14 19 18 15 15 16 12 9 8 8 8 8 6 8 8 8 7 6 7 6 6 5 3 2 1 1 1 1 1 1 1 1 1 1 1 1
13 14 9 9 8 8 10 12 9 14 17 16 13 12 9 8 8 8 8 8 8 7 6 8 8 8 8 7 6 6 6 6 3 1 1 1 1 1 1 1 0 1 0 0
10 16 11 11 9 8 9 8 14 13 20 19 14 14 13 12 10 10 9 9 8 8 7 7 8 8 8 7 7 6 6 6 5 3 2 1 1 1 1 1 1 1 0 1
10 13 15 13 12 12 12 12 11 11 13 17 17 14 10 10 10 10 9 8 8 8 7 7 7 7 7 7 7 7 6 6 5 5 3 2 1 1 1 1 1 1 1 2
10 13 17 14 13 12 10 11 11 14 16 14 14 15 11 10 9 9 9 8 8 7 7 7 7 6 6 6 5 5 6 6 6 6 5 5 5 4 3 1 1 1 3 4
11 13 17 16 14 13 12 11 11 11 12 16 17 14 9 10 10 9 9 8 7 8 7 7 7 6 6 6 5 5 4 5 5 5 5 5 5 4 4 3 3 4 5 6
9 12 14 17 15 14 15 13 12 12 15 14 14 12 11 10 9 9 8 7 7 7 7 7 6 6 6 6 5 5 5 5 5 5 5 6 6 5 4 5 5 6 6 7
9 14 13 13 12 13 13 13 11 12 12 13 12 12 9 8 9 7 6 7 7 7 7 7 7 6 6 6 6 5 5 5 5 6 6 7 8 7 8 8 9 10 10 10
9 14 14 16 12 12 13 12 12 11 11 11 11 12 8 7 7 7 7 7 7 7 7 6 6 6 6 6 6 6 5 6 6 6 7 9 10 11 10 11 12 12 12 12
12 14 14 16 14 13 15 14 13 12 10 10 12 11 8 9 8 8 7 7 7 7 7 6 6 6 5 5 5 6 6 6 7 7 8 11 12 12 12 12 12 12 12 13
14 14 14 18 15 19 13 10 10 11 10 9 9 9 7 7 7 6 6 6 7 7 7 6 6 6 5 5 5 5 6 7 8 9 10 11 12 12 12 12 12 13 13 13
11 13 16 17 16 13 12 13 12 12 12 9 9 9 7 7 7 8 7 6 6 6 7 6 5 5 5 5 5 7 8 8 9 10 11 11 11 12 12 12 12 13 13 13
11 10 13 15 17 18 12 11 9 8 14 9 8 9 8 8 11 9 7 8 8 8 8 8 7 6 6 6 7 9 9 9 9 10 11 11 12 12 12 13 13 13 13 14
15 14 15 15 16 15 10 10 9 15 12 9 8 8 8 9 8 8 8 9 9 9 9 9 8 8 8 9 9 10 10 10 10 12 12 13 12 13 12 13 14 14 14 14
14 15 15 14 16 17 11 11 12 9 8 8 8 7 8 7 9 9 9 10 10 10 11 11 11 12 11 11 10 11 11 12 12 13 13 13 13 13 13 14 14 14 14 14
14 12 13 12 12 10 10 9 7 6 7 8 7 8 7 9 9 9 9 10 11 12 13 13 12 13 13 13 12 12 13 13 13 13 13 14 14 13 13 14 14 14 14 14
13 10 11 11 10 10 10 9 8 8 7 7 7 8 8 9 9 10 11 12 12 13 13 13 13 13 14 13 13 13 13 13 13 14 14 14 14 14 14 14 14 14 14 14
11 12 13 12 12 11 10 9 8 9 10 10 10 10 9 9 11 11 12 13 13 13 14 13 14 14 15 14 14 14 14 13 13 13 14 14 13 14 14 14 14 14 14 13
11 11 12 12 10 9 9 8 9 10 10 10 11 11 11 10 11 12 13 13 13 14 14 14 15 15 15 15 16 15 15 14 14 14 15 14 14 14 15 15 16 15 15 15